User: anonymous   Login
Location: Boullarre
(49.1305°N, 3.0047°E)
Time: 05:09:13
(UTC+00:00)
Language:

SL-16 R/B - Orbit

View from above orbital plane
View from above orbital plane
View from above satellite
View from above satellite

Ground track
Ground track

The orbit data is extracted from the following two-line orbital elements,

1 31793U 07029B   24104.68160525 -.00000098  00000-0 -26039-4 0  9998
2 31793  70.9756 193.1208 0002571 274.8639 194.9327 14.14604284867074
Epoch (UTC): 13 April 2024 16:21:30
Eccentricity: 0.0002571
inclination: 70.9756°
perigee height: 842 km
apogee height: 845 km
right ascension of ascending node: 193.1208°
argument of perigee: 274.8639°
revolutions per day: 14.14604284
mean anomaly at epoch: 194.9327°
orbit number at epoch: 86707

The dashed part of the orbit path shows where the satellite is in the earth's shadow,  

DLR